TimeMST,TemperatureF,Dew PointF,Humidity,Sea Level PressureIn,VisibilityMPH,Wind Direction,Wind SpeedMPH,Gust SpeedMPH,PrecipitationIn,Events,Conditions,WindDirDegrees,DateUTC
12:19 AM,35.6,30.2,81,30.01,2.5,WNW,4.6,-,0.01,Snow,Light Snow,290,2013-11-05 07:19:00
12:26 AM,35.6,30.2,81,30.01,4.0,WNW,3.5,-,0.01,Snow,Light Snow,290,2013-11-05 07:26:00
12:38 AM,33.8,30.2,87,30.01,4.0,Calm,Calm,-,0.01,Snow,Light Snow,0,2013-11-05 07:38:00
12:53 AM,34.0,30.9,89,30.03,2.5,Calm,Calm,-,0.01,Snow,Light Snow,0,2013-11-05 07:53:00
1:31 AM,33.8,32.0,93,30.00,3.0,North,4.6,-,0.02,Snow,Light Snow,350,2013-11-05 08:31:00
1:53 AM,33.1,32.0,96,30.03,9.0,NNW,3.5,-,0.02,Snow,Light Snow,340,2013-11-05 08:53:00
2:03 AM,33.8,30.2,87,29.99,7.0,North,4.6,-,0.01,Snow,Light Snow,360,2013-11-05 09:03:00
2:53 AM,33.1,30.9,92,30.02,2.5,NNW,6.9,-,0.04,Snow,Light Snow,340,2013-11-05 09:53:00
3:04 AM,33.8,30.2,87,30.00,1.8,NW,4.6,-,0.02,Snow,Light Snow,310,2013-11-05 10:04:00
3:12 AM,33.8,30.2,87,29.99,1.2,NW,4.6,-,0.03,Snow,Light Snow,320,2013-11-05 10:12:00
3:46 AM,33.8,32.0,93,30.00,1.2,North,4.6,-,0.07,Snow,Light Snow,360,2013-11-05 10:46:00
3:53 AM,33.1,30.9,92,30.04,1.5,North,5.8,-,0.07,Snow,Light Snow,360,2013-11-05 10:53:00
4:23 AM,33.8,30.2,87,30.01,3.0,North,6.9,-,0.03,Snow,Light Snow,360,2013-11-05 11:23:00
4:30 AM,33.8,30.2,87,30.00,7.0,North,6.9,-,0.03,Snow,Light Snow,360,2013-11-05 11:30:00
4:53 AM,33.1,30.9,92,30.05,3.0,NNW,4.6,-,0.04,Snow,Light Snow,330,2013-11-05 11:53:00
4:59 AM,33.8,30.2,87,30.01,2.5,NNW,5.8,-,0.00,Snow,Light Snow,340,2013-11-05 11:59:00
5:09 AM,33.8,30.2,87,30.01,1.8,NW,3.5,-,0.01,Snow,Light Snow,320,2013-11-05 12:09:00
5:19 AM,33.8,30.2,87,30.02,2.0,WNW,3.5,-,0.01,Snow,Light Snow,300,2013-11-05 12:19:00
5:53 AM,32.0,30.9,96,30.09,2.0,NW,4.6,-,0.02,Snow,Light Snow,310,2013-11-05 12:53:00
6:05 AM,32.0,30.2,93,30.02,1.8,WNW,4.6,-,0.01,Snow,Light Snow,300,2013-11-05 13:05:00
6:12 AM,32.0,30.2,93,30.02,1.5,WNW,4.6,-,0.01,Snow,Light Snow,290,2013-11-05 13:12:00
6:27 AM,32.0,30.2,93,30.02,1.5,WNW,4.6,-,0.02,Snow,Light Snow,290,2013-11-05 13:27:00
6:50 AM,32.0,30.2,93,30.03,1.2,WNW,8.1,-,0.03,Snow,Light Snow,300,2013-11-05 13:50:00
6:53 AM,32.0,30.9,96,30.09,1.0,WNW,8.1,-,0.04,Snow,Light Snow,300,2013-11-05 13:53:00
7:15 AM,32.0,30.2,93,30.03,1.2,WNW,9.2,-,0.00,Snow,Light Snow,300,2013-11-05 14:15:00
7:21 AM,32.0,30.2,93,30.04,1.2,WNW,6.9,-,0.00,Snow,Light Snow,290,2013-11-05 14:21:00
7:36 AM,32.0,30.2,93,30.05,2.0,WNW,8.1,-,0.01,Snow,Light Snow,300,2013-11-05 14:36:00
7:53 AM,32.0,30.9,96,30.11,3.0,NW,8.1,-,0.01,Snow,Light Snow,310,2013-11-05 14:53:00
8:01 AM,32.0,30.2,93,30.05,3.0,NW,8.1,-,0.00,Snow,Light Snow,310,2013-11-05 15:01:00
8:11 AM,33.8,30.2,87,30.06,2.0,WNW,8.1,-,0.00,Snow,Light Snow,300,2013-11-05 15:11:00
8:27 AM,33.8,30.2,87,30.06,4.0,WNW,8.1,-,0.00,Snow,Light Snow,300,2013-11-05 15:27:00
8:34 AM,33.8,30.2,87,30.06,5.0,NW,8.1,-,0.00,Snow,Light Snow,310,2013-11-05 15:34:00
8:53 AM,33.1,30.9,92,30.12,10.0,NW,9.2,-,0.00,,Overcast,310,2013-11-05 15:53:00
9:27 AM,33.8,30.2,87,30.07,10.0,WNW,10.4,-,N/A,,Overcast,290,2013-11-05 16:27:00
9:53 AM,33.1,28.9,85,30.13,10.0,WNW,11.5,18.4,N/A,,Overcast,300,2013-11-05 16:53:00
10:14 AM,33.8,28.4,81,30.08,10.0,WNW,15.0,-,N/A,,Mostly Cloudy,300,2013-11-05 17:14:00
10:53 AM,34.0,28.0,79,30.14,10.0,WNW,12.7,-,N/A,,Scattered Clouds,300,2013-11-05 17:53:00
11:31 AM,33.8,26.6,75,30.08,10.0,NW,15.0,19.6,N/A,,Mostly Cloudy,310,2013-11-05 18:31:00
11:53 AM,34.0,27.0,75,30.13,10.0,NNW,16.1,-,N/A,,Overcast,330,2013-11-05 18:53:00
12:53 PM,35.1,27.0,72,30.12,10.0,NW,17.3,-,N/A,,Mostly Cloudy,320,2013-11-05 19:53:00
1:53 PM,35.1,30.9,85,30.14,10.0,NNW,13.8,-,N/A,,Mostly Cloudy,340,2013-11-05 20:53:00
2:17 PM,35.6,32.0,87,30.08,10.0,NW,13.8,-,N/A,,Partly Cloudy,320,2013-11-05 21:17:00
2:53 PM,37.0,27.0,67,30.14,10.0,NNW,10.4,-,N/A,,Scattered Clouds,330,2013-11-05 21:53:00
3:53 PM,36.0,27.0,70,30.15,10.0,NNW,5.8,-,N/A,,Clear,340,2013-11-05 22:53:00
4:53 PM,30.0,26.1,85,30.18,10.0,NE,5.8,-,N/A,,Clear,40,2013-11-05 23:53:00
5:53 PM,28.0,24.1,85,30.21,10.0,NE,4.6,-,N/A,,Clear,50,2013-11-06 00:53:00
6:53 PM,26.1,23.0,88,30.22,10.0,SSE,4.6,-,N/A,,Clear,160,2013-11-06 01:53:00
7:53 PM,26.1,23.0,88,30.22,10.0,SE,5.8,-,N/A,,Clear,140,2013-11-06 02:53:00
8:53 PM,24.1,21.0,88,30.22,10.0,ESE,4.6,-,N/A,,Clear,110,2013-11-06 03:53:00
9:53 PM,23.0,21.0,92,30.22,10.0,East,6.9,-,N/A,,Clear,90,2013-11-06 04:53:00
10:53 PM,23.0,19.9,88,30.21,10.0,East,5.8,-,N/A,,Clear,90,2013-11-06 05:53:00
11:53 PM,21.0,18.0,88,30.20,10.0,NNE,3.5,-,N/A,,Clear,30,2013-11-06 06:53:00